| time (UTC) | temp F | wind direction | speed knots | gust knots | rain 1hr in | rain 24hr in | rain mn in | humidity % | barometer mb |
| 20260831231024 | 56 | 5 | 2.6 | 5.2 | 0.00 | 0.00 | 0.00 | 77 | 1024.9 |
| 20260831230031 | 55 | 4 | 2.6 | 5.2 | 0.00 | 0.00 | 0.00 | 79 | 1025.1 |
| 20260831225018 | 55 | 2 | 2.6 | 5.2 | 0.00 | 0.00 | 0.00 | 80 | 1025.2 |
| 20260831224026 | 54 | 354 | 3.5 | 5.2 | 0.00 | 0.00 | 0.00 | 81 | 1025.3 |
| 20260831223034 | 53 | 4 | 1.7 | 4.3 | 0.00 | 0.00 | 0.00 | 83 | 1025.3 |
| 20260831222021 | 51 | 14 | 1.7 | 4.3 | 0.00 | 0.00 | 0.00 | 86 | 1025.3 |
| 20260831221028 | 51 | 3 | 2.6 | 4.3 | 0.00 | 0.00 | 0.00 | 87 | 1025.2 |
| 20260831220043 | 50 | 358 | 1.7 | 3.5 | 0.00 | 0.00 | 0.00 | 87 | 1025.2 |
| 20260831215023 | 49 | 291 | 0.9 | 2.6 | 0.00 | 0.00 | 0.00 | 92 | 1025.3 |
| 20260831214038 | 48 | 88 | 0.9 | 1.7 | 0.00 | 0.00 | 0.00 | 97 | 1025.2 |
| 20260831213032 | 48 | 332 | 0.0 | 1.7 | 0.00 | 0.00 | 0.00 | 97 | 1025.5 |
| 20260831212026 | 47 | 2 | 0.9 | 2.6 | 0.00 | 0.00 | 0.00 | 98 | 1025.3 |
| 20260831211033 | 47 | 213 | 0.0 | 1.7 | 0.00 | 0.00 | 0.00 | 97 | 1025.3 |
| 20260831210021 | 47 | 308 | 0.0 | 1.7 | 0.00 | 0.00 | 0.00 | 97 | 1025.3 |
| 20260831205028 | 46 | 289 | 0.0 | 1.7 | 0.00 | 0.00 | 0.00 | 96 | 1025.2 |
| 20260831204050 | 45 | 150 | 0.0 | 1.7 | 0.00 | 0.00 | 0.00 | 97 | 1025.1 |
| 20260831203023 | 44 | 0.0 | 1.7 | 0.00 | 0.00 | 0.00 | 97 | 1025.2 | |
| 20260831202039 | 44 | 144 | 0.9 | 1.7 | 0.00 | 0.00 | 0.00 | 97 | 1025.2 |
| 20260831201018 | 45 | 32 | 0.0 | 1.7 | 0.00 | 0.00 | 0.00 | 96 | 1025.2 |
| 20260831200026 | 45 | 299 | 0.0 | 1.7 | 0.00 | 0.00 | 0.00 | 96 | 1025.1 |
| 20260831195034 | 45 | 289 | 0.0 | 1.7 | 0.00 | 0.00 | 0.00 | 96 | 1025.1 |
| 20260831194022 | 45 | 162 | 0.0 | 1.7 | 0.00 | 0.00 | 0.00 | 97 | 1025.0 |
| 20260831193030 | 45 | 356 | 0.9 | 2.6 | 0.00 | 0.00 | 0.00 | 97 | 1025.1 |
| 20260831192017 | 46 | 352 | 0.9 | 1.7 | 0.00 | 0.00 | 0.00 | 96 | 1025.1 |
| 20260831191025 | 46 | 28 | 0.0 | 1.7 | 0.00 | 0.00 | 0.00 | 96 | 1025.1 |
| 20260831190053 | 46 | 166 | 1.7 | 3.5 | 0.00 | 0.00 | 0.00 | 96 | 1025.1 |
| 20260831185020 | 46 | 168 | 1.7 | 2.6 | 0.00 | 0.00 | 0.00 | 96 | 1025.2 |
| 20260831184034 | 46 | 176 | 1.7 | 2.6 | 0.00 | 0.00 | 0.00 | 96 | 1025.3 |
| 20260831183036 | 47 | 172 | 0.9 | 1.7 | 0.00 | 0.00 | 0.00 | 96 | 1025.2 |
| 20260831182030 | 47 | 113 | 0.9 | 1.7 | 0.00 | 0.00 | 0.00 | 96 | 1025.3 |
| 20260831181039 | 47 | 143 | 0.9 | 1.7 | 0.00 | 0.00 | 0.00 | 96 | 1025.3 |
| 20260831180027 | 47 | 118 | 0.9 | 1.7 | 0.00 | 0.00 | 0.00 | 95 | 1025.4 |
| 20260831175029 | 47 | 37 | 0.9 | 2.6 | 0.00 | 0.00 | 0.00 | 95 | 1025.7 |
| 20260831174024 | 47 | 82 | 0.9 | 1.7 | 0.00 | 0.00 | 0.00 | 95 | 1025.6 |
| 20260831173026 | 47 | 51 | 0.9 | 2.6 | 0.00 | 0.00 | 0.00 | 95 | 1025.7 |
| 20260831172035 | 47 | 93 | 0.9 | 2.6 | 0.00 | 0.00 | 0.00 | 94 | 1025.6 |
| 20260831171024 | 48 | 172 | 0.9 | 1.7 | 0.00 | 0.00 | 0.00 | 94 | 1025.8 |
| 20260831170032 | 47 | 147 | 0.9 | 2.6 | 0.00 | 0.00 | 0.00 | 94 | 1025.8 |
| 20260831165019 | 48 | 174 | 0.9 | 2.6 | 0.00 | 0.00 | 0.00 | 94 | 1025.9 |
| 20260831164028 | 48 | 181 | 0.9 | 1.7 | 0.00 | 0.00 | 0.00 | 94 | 1026.1 |
| 20260831163016 | 48 | 176 | 1.7 | 2.6 | 0.00 | 0.00 | 0.00 | 93 | 1026.2 |
| 20260831162025 | 49 | 180 | 1.7 | 2.6 | 0.00 | 0.00 | 0.00 | 92 | 1026.3 |
| 20260831161032 | 49 | 182 | 0.9 | 2.6 | 0.00 | 0.00 | 0.00 | 89 | 1026.4 |
| 20260831160021 | 50 | 177 | 0.9 | 2.6 | 0.00 | 0.00 | 0.00 | 89 | 1026.6 |
| 20260831155027 | 50 | 180 | 0.9 | 1.7 | 0.00 | 0.00 | 0.00 | 88 | 1026.7 |
| 20260831154035 | 50 | 180 | 1.7 | 3.5 | 0.00 | 0.00 | 0.00 | 89 | 1026.7 |
| 20260831153022 | 51 | 181 | 1.7 | 3.5 | 0.00 | 0.00 | 0.00 | 91 | 1027.0 |
| 20260831152038 | 50 | 178 | 0.9 | 2.6 | 0.00 | 0.00 | 0.00 | 90 | 1026.9 |
| 20260831151018 | 50 | 180 | 1.7 | 3.5 | 0.00 | 0.00 | 0.00 | 90 | 1027.1 |
| 20260831150025 | 51 | 123 | 0.9 | 1.7 | 0.00 | 0.00 | 0.00 | 89 | 1027.2 |
| 20260831145033 | 51 | 178 | 2.6 | 3.5 | 0.00 | 0.00 | 0.00 | 91 | 1027.2 |
| 20260831144020 | 51 | 178 | 2.6 | 4.3 | 0.00 | 0.00 | 0.00 | 92 | 1027.4 |
| 20260831143037 | 50 | 178 | 1.7 | 4.3 | 0.00 | 0.00 | 0.00 | 90 | 1027.3 |
| 20260831142017 | 51 | 156 | 0.9 | 3.5 | 0.00 | 0.00 | 0.00 | 90 | 1027.4 |
| 20260831141022 | 52 | 136 | 0.9 | 2.6 | 0.00 | 0.00 | 0.00 | 86 | 1027.4 |
| 20260831140029 | 53 | 183 | 1.7 | 3.5 | 0.00 | 0.00 | 0.00 | 86 | 1027.3 |
| 20260831134026 | 54 | 175 | 1.7 | 3.5 | 0.00 | 0.00 | 0.00 | 84 | 1027.4 |
| 20260831133032 | 55 | 170 | 1.7 | 3.5 | 0.00 | 0.00 | 0.00 | 82 | 1027.5 |
| 20260831132024 | 55 | 146 | 1.7 | 3.5 | 0.00 | 0.00 | 0.00 | 81 | 1027.6 |
| 20260831131033 | 54 | 117 | 1.7 | 5.2 | 0.00 | 0.00 | 0.00 | 84 | 1027.8 |
| 20260831130030 | 53 | 18 | 0.0 | 2.6 | 0.00 | 0.00 | 0.00 | 83 | 1028.0 |
| 20260831125018 | 56 | 4 | 0.9 | 1.7 | 0.00 | 0.00 | 0.00 | 77 | 1028.0 |
| 20260831124024 | 56 | 0.0 | 0.9 | 0.00 | 0.00 | 0.00 | 78 | 1028.1 | |
| 20260831123535 | 57 | 214 | 0.0 | 1.7 | 0.00 | 0.00 | 0.00 | 77 | 1028.1 |
| 20260831122543 | 57 | 0.0 | 0.9 | 0.00 | 0.00 | 0.00 | 76 | 1028.1 | |
| 20260831121521 | 57 | 0.0 | 0.0 | 0.00 | 0.00 | 0.00 | 75 | 1028.2 | |
| 20260831120529 | 58 | 198 | 0.0 | 0.9 | 0.00 | 0.00 | 0.00 | 74 | 1028.2 |
| 20260831115536 | 59 | 0.0 | 0.0 | 0.00 | 0.00 | 0.00 | 72 | 1028.3 | |
| 20260831114529 | 59 | 0.0 | 0.0 | 0.00 | 0.00 | 0.00 | 71 | 1028.3 | |
| 20260831113537 | 60 | 225 | 0.9 | 2.6 | 0.00 | 0.00 | 0.00 | 71 | 1028.4 |
| 20260831112518 | 59 | 0.0 | 0.0 | 0.00 | 0.00 | 0.00 | 71 | 1028.5 | |
| 20260831111525 | 59 | 0.0 | 0.0 | 0.00 | 0.00 | 0.00 | 73 | 1028.5 | |
| 20260831110532 | 59 | 0.0 | 0.0 | 0.00 | 0.00 | 0.00 | 73 | 1028.3 | |
| 20260831105518 | 59 | 0.0 | 0.0 | 0.00 | 0.00 | 0.00 | 74 | 1028.5 | |
| 20260831104524 | 60 | 0.0 | 0.0 | 0.00 | 0.00 | 0.00 | 71 | 1028.5 | |
| 20260831103532 | 60 | 331 | 0.0 | 0.9 | 0.00 | 0.00 | 0.00 | 71 | 1028.5 |
| 20260831102520 | 60 | 0.0 | 0.0 | 0.00 | 0.00 | 0.00 | 71 | 1028.4 | |
| 20260831101531 | 61 | 63 | 0.0 | 1.7 | 0.00 | 0.00 | 0.00 | 68 | 1028.4 |
| 20260831100523 | 62 | 0.0 | 0.9 | 0.00 | 0.00 | 0.00 | 66 | 1028.2 | |
| 20260831095040 | 63 | 214 | 0.0 | 1.7 | 0.00 | 0.00 | 0.00 | 65 | 1028.3 |
| 20260831094020 | 62 | 229 | 0.9 | 2.6 | 0.00 | 0.00 | 0.00 | 66 | 1028.2 |
| 20260831093026 | 62 | 257 | 0.9 | 1.7 | 0.00 | 0.00 | 0.00 | 67 | 1028.3 |
| 20260831091532 | 62 | 0.0 | 0.9 | 0.00 | 0.00 | 0.00 | 69 | 1028.3 | |
| 20260831090519 | 62 | 208 | 0.0 | 0.9 | 0.00 | 0.00 | 0.00 | 69 | 1028.3 |
| 20260831085521 | 62 | 0.0 | 1.7 | 0.00 | 0.00 | 0.00 | 69 | 1028.2 | |
| 20260831084527 | 62 | 281 | 0.0 | 1.7 | 0.00 | 0.00 | 0.00 | 68 | 1028.2 |
| 20260831083532 | 63 | 172 | 0.0 | 1.7 | 0.00 | 0.00 | 0.00 | 67 | 1028.1 |
| 20260831082518 | 63 | 155 | 0.0 | 1.7 | 0.00 | 0.00 | 0.00 | 67 | 1028.2 |
| 20260831081524 | 64 | 350 | 0.9 | 2.6 | 0.00 | 0.00 | 0.00 | 65 | 1028.1 |
| 20260831080530 | 65 | 355 | 2.6 | 4.3 | 0.00 | 0.00 | 0.00 | 64 | 1028.0 |
| 20260831075535 | 65 | 352 | 2.6 | 5.2 | 0.00 | 0.00 | 0.00 | 63 | 1027.8 |
| 20260831074518 | 66 | 341 | 3.5 | 7.8 | 0.00 | 0.00 | 0.00 | 61 | 1027.9 |
| 20260831073530 | 67 | 337 | 3.5 | 7.8 | 0.00 | 0.00 | 0.00 | 59 | 1027.8 |
| 20260831072529 | 67 | 340 | 4.3 | 7.0 | 0.00 | 0.00 | 0.00 | 56 | 1027.8 |
| 20260831071533 | 68 | 342 | 4.3 | 8.7 | 0.00 | 0.00 | 0.00 | 54 | 1027.7 |
| 20260831070527 | 68 | 336 | 5.2 | 11.3 | 0.00 | 0.00 | 0.00 | 53 | 1027.9 |
| 20260831065525 | 69 | 325 | 6.1 | 9.6 | 0.00 | 0.00 | 0.00 | 50 | 1027.9 |
| 20260831064531 | 69 | 338 | 4.3 | 7.8 | 0.00 | 0.00 | 0.00 | 49 | 1027.9 |
| 20260831063547 | 69 | 326 | 5.2 | 9.6 | 0.00 | 0.00 | 0.00 | 49 | 1028.0 |
| 20260831062536 | 69 | 324 | 5.2 | 7.8 | 0.00 | 0.00 | 0.00 | 50 | 1027.8 |
| 20260831061522 | 70 | 327 | 5.2 | 9.6 | 0.00 | 0.00 | 0.00 | 47 | 1027.9 |
| 20260831060532 | 69 | 332 | 6.1 | 11.3 | 0.00 | 0.00 | 0.00 | 43 | 1027.9 |
| 20260831055535 | 70 | 334 | 6.1 | 11.3 | 0.00 | 0.00 | 0.00 | 38 | 1027.9 |
| 20260831054534 | 70 | 359 | 4.3 | 8.7 | 0.00 | 0.00 | 0.00 | 35 | 1027.8 |
| 20260831053518 | 70 | 346 | 3.5 | 7.0 | 0.00 | 0.00 | 0.00 | 40 | 1027.9 |
| 20260831052530 | 70 | 348 | 4.3 | 9.6 | 0.00 | 0.00 | 0.00 | 41 | 1028.1 |
| 20260831051529 | 70 | 357 | 4.3 | 8.7 | 0.00 | 0.00 | 0.00 | 41 | 1028.2 |
| 20260831050537 | 70 | 0 | 4.3 | 7.8 | 0.00 | 0.00 | 0.00 | 38 | 1028.2 |
| 20260831045523 | 71 | 342 | 5.2 | 9.6 | 0.00 | 0.00 | 0.00 | 36 | 1028.2 |
| 20260831044537 | 70 | 339 | 3.5 | 7.8 | 0.00 | 0.00 | 0.00 | 37 | 1028.2 |
| 20260831043542 | 71 | 324 | 6.1 | 9.6 | 0.00 | 0.00 | 0.00 | 39 | 1028.3 |
| 20260831042521 | 70 | 345 | 3.5 | 7.0 | 0.00 | 0.00 | 0.00 | 42 | 1028.4 |
| 20260831041523 | 70 | 330 | 6.1 | 11.3 | 0.00 | 0.00 | 0.00 | 41 | 1028.4 |
| 20260831040530 | 70 | 329 | 5.2 | 9.6 | 0.00 | 0.00 | 0.00 | 40 | 1028.4 |
| 20260831035531 | 70 | 341 | 4.3 | 7.8 | 0.00 | 0.00 | 0.00 | 42 | 1028.5 |
| 20260831034535 | 70 | 327 | 5.2 | 11.3 | 0.00 | 0.00 | 0.00 | 40 | 1028.5 |
| 20260831033519 | 70 | 337 | 5.2 | 8.7 | 0.00 | 0.00 | 0.00 | 41 | 1028.7 |
| 20260831032522 | 69 | 334 | 4.3 | 8.7 | 0.00 | 0.00 | 0.00 | 43 | 1028.7 |
| 20260831031534 | 70 | 331 | 6.1 | 10.4 | 0.00 | 0.00 | 0.00 | 45 | 1029.1 |
| 20260831030535 | 69 | 329 | 5.2 | 8.7 | 0.00 | 0.00 | 0.00 | 45 | 1029.1 |
| 20260831025534 | 69 | 343 | 4.3 | 7.0 | 0.00 | 0.00 | 0.00 | 45 | 1029.1 |
| 20260831024525 | 69 | 342 | 3.5 | 8.7 | 0.00 | 0.00 | 0.00 | 44 | 1029.3 |
| 20260831023531 | 69 | 357 | 3.5 | 5.2 | 0.00 | 0.00 | 0.00 | 42 | 1029.5 |
| 20260831022531 | 68 | 347 | 3.5 | 6.1 | 0.00 | 0.00 | 0.00 | 39 | 1029.6 |
| 20260831021536 | 69 | 330 | 4.3 | 7.8 | 0.00 | 0.00 | 0.00 | 41 | 1029.8 |
| 20260831020519 | 68 | 329 | 3.5 | 7.8 | 0.00 | 0.00 | 0.00 | 43 | 1029.8 |
| 20260831015523 | 68 | 318 | 1.7 | 4.3 | 0.00 | 0.00 | 0.00 | 44 | 1029.9 |
| 20260831014529 | 66 | 278 | 0.9 | 2.6 | 0.00 | 0.00 | 0.00 | 47 | 1030.0 |
| 20260831013535 | 66 | 301 | 2.6 | 5.2 | 0.00 | 0.00 | 0.00 | 46 | 1030.2 |
| 20260831012520 | 65 | 301 | 1.7 | 4.3 | 0.00 | 0.00 | 0.00 | 49 | 1030.4 |
| 20260831011525 | 63 | 286 | 0.9 | 1.7 | 0.00 | 0.00 | 0.00 | 52 | 1030.4 |
| 20260831010535 | 62 | 289 | 2.6 | 3.5 | 0.00 | 0.00 | 0.00 | 57 | 1030.6 |
| 20260831005533 | 61 | 268 | 1.7 | 4.3 | 0.00 | 0.00 | 0.00 | 58 | 1030.7 |
| 20260831004517 | 60 | 206 | 1.7 | 3.5 | 0.00 | 0.00 | 0.00 | 59 | 1030.8 |
| 20260831003523 | 59 | 197 | 2.6 | 3.5 | 0.00 | 0.00 | 0.00 | 62 | 1030.9 |
| 20260831002534 | 59 | 191 | 2.6 | 5.2 | 0.00 | 0.00 | 0.00 | 63 | 1030.9 |
| 20260831001540 | 57 | 211 | 1.7 | 5.2 | 0.00 | 0.00 | 0.00 | 64 | 1031.1 |
| 20260831000517 | 56 | 194 | 2.6 | 3.5 | 0.00 | 0.00 | 0.00 | 65 | 1031.1 |
| 20260830235525 | 56 | 184 | 3.5 | 5.2 | 0.00 | 0.00 | 0.00 | 63 | 1031.1 |
| 20260830234528 | 55 | 195 | 2.6 | 4.3 | 0.00 | 0.00 | 0.00 | 63 | 1031.2 |
| 20260830233534 | 54 | 187 | 2.6 | 4.3 | 0.00 | 0.00 | 0.00 | 65 | 1031.2 |
| 20260830232518 | 54 | 174 | 3.5 | 6.1 | 0.00 | 0.00 | 0.00 | 65 | 1031.3 |
| 20260830231524 | 53 | 167 | 3.5 | 5.2 | 0.00 | 0.00 | 0.00 | 67 | 1031.4 |